Погода в Верх-Нейвинском

Россия / Свердловская область     57°15′56″N   60°07′53″E
темп.,
°C
ветер,
м/с
пор.,
м/с
влажн.,
%
обл.,
%
осадки,
мм/ч
давл.,
гПа
погр.,
м
8 марта, пн
пн823:00−17з359561 0.1 100899
02:00−19зюз33960 0.0 100867
05:00−20зюз23980 0.0 100944
08:00−20юз239857 0.0 100746
11:00−12ю358978 0.0 1005331
14:00−9ююв4890100 0.2 1003707
17:00−7ю3792100 0.9 1001626
20:00−7ю51293100 0.9 999936
9 марта, вт
вт923:00−8юз6158598 1.0 999856
02:00−9зюз7168566 0.0 1001723
05:00−10зюз4129164 0.0 1002414
08:00−13ююз1195100 0.0 100120
11:00−8ссз2389100 0.1 1002339
14:00−6з4780100 0.2 10051103
17:00−6з4881100 0.3 10071160
20:00−11з239599 0.1 100921
10 марта, ср
ср1023:00−14зюз229583 0.1 101120
02:00−16юз1196100 0.0 101020
05:00−15св1196100 0.0 100920
08:00−15ссв2497100 0.1 1008139
11:00−13ссв4794100 0.6 1006343
14:00−11св61093100 1.1 1005557
17:00−12св61294100 2.4 1003678
20:00−14ссв61294100 1.3 1004699
11 марта, чт
чт1123:00−17ссв61195100 2.3 1006585
02:00−19с51196100 0.4 1007472
05:00−21с4996100 0.5 1009338
08:00−25ссз259595 0.0 1010135
11:00−16сз137457 0.0 1011340
14:00−14сз248190 0.0 1011754
17:00−15сз368795 0.1 1011857
20:00−17зсз31092100 0.1 1013430
12 марта, пт
пт1223:00−20с12100100 0.1 101420
02:00−22ссз1199100 0.1 101520
05:00−21зюз1198100 0.1 101620
08:00−19зюз2596100 0.1 1017207
11:00−13зсз4885100 0.1 1017798
14:00−10зсз5882100 0.1 10181042
17:00−10з5983100 0.2 1018934
20:00−13з41290100 0.0 1020564